Location: Unspecified
(0.0000°N, 0.0000°E)
Time: 10:54:06
(UTC+00:00)

Explorer 11/Cluster Stage 4 - Pass Details

Date: 07 October 2020
Orbit: 467 x 1258 km, 28.8° (Epoch: 28 October)

Event Time Altitude Azimuth Distance (km) Brightness Sun altitude
Rises 03:03:47 0° 322° (NW) 3,362 - -40.8°
Reaches altitude 10° 03:06:30 10° 334° (NNW) 2,562 - -40.1°
Maximum altitude 03:11:49 28° 32° (NNE) 1,807 - -38.8°
Exits shadow 03:12:31 28° 42° (NE) 1,848 8.6 -38.6°
Drops below altitude 10° 03:18:00 10° 88° (E) 3,025 10.3 -37.2°
Sets 03:21:29 0° 98° (E) 4,082 11.2 -36.4°
